This is the latest recevied weather packets stored in our database for station/object WB5LFS-1. If no packets are shown the sender has not sent any weather packets the latest 10 day(s).
| Time | Temp. | Humidity | Pressure | Rain* | Wind** | Luminosity | Snow |
|---|---|---|---|---|---|---|---|
| 1777475518 | 17.22° C | 77% | 1013.9 hPa | 0 mm | - | - | - |
| 1777474618 | 16.67° C | 79% | 1014 hPa | 0 mm | - | - | - |
| 1777473718 | 16.67° C | 80% | 1014.3 hPa | 0 mm | - | - | - |
| 1777472818 | 16.11° C | 81% | 1014.6 hPa | 0 mm | - | - | - |
| 1777471918 | 15.56° C | 82% | 1014.7 hPa | 0 mm | - | - | - |
| 1777471018 | 15° C | 83% | 1014.8 hPa | 0 mm | - | - | - |
| 1777470118 | 15° C | 85% | 1014.9 hPa | 0 mm | - | - | - |
| 1777469218 | 14.44° C | 85% | 1014.9 hPa | 0 mm | - | - | - |
| 1777468318 | 13.89° C | 85% | 1015.2 hPa | 0 mm | - | - | - |
| 1777467418 | 13.33° C | 85% | 1015.2 hPa | 0 mm | - | - | - |
| 1777466518 | 12.78° C | 86% | 1015.4 hPa | 0 mm | - | - | - |
| 1777465618 | 12.22° C | 87% | 1015.4 hPa | 0 mm | - | - | - |
| 1777464718 | 11.67° C | 85% | 1015.5 hPa | 0 mm | - | - | - |
| 1777463818 | 11.67° C | 85% | 1015.2 hPa | 0 mm | - | - | - |
| 1777462918 | 11.11° C | 87% | 1015 hPa | 0 mm | - | - | - |
| 1777462019 | 11.11° C | 87% | 1014.7 hPa | 0 mm | - | - | - |
| 1777461119 | 10.56° C | 88% | 1014.3 hPa | 0 mm | - | - | - |
| 1777460219 | 10° C | 89% | 1014.4 hPa | 0 mm | - | - | - |
| 1777459319 | 10° C | 89% | 1014.5 hPa | 0 mm | - | - | - |
| 1777458419 | 10° C | 88% | 1014.6 hPa | 0 mm | - | - | - |
| 1777457519 | 9.44° C | 89% | 1014.6 hPa | 0 mm | - | - | - |
| 1777456619 | 9.44° C | 89% | 1014.6 hPa | 0 mm | - | - | - |
| 1777455719 | 9.44° C | 89% | 1014.8 hPa | 0 mm | - | - | - |
| 1777454819 | 9.44° C | 88% | 1015.1 hPa | 0 mm | - | - | - |
| 1777453919 | 9.44° C | 87% | 1015.2 hPa | 0 mm | - | - | - |
* Rain latest hour (hover to see other rain measurements)
** Current wind speed in m/s (hover to see current wind gust speed)